Location: Peebles
(55.6412°N, 3.1714°W)
Time: 15:32:20
(UTC+01:00)

deb Agena D - Pass Details

Date: 18 September 2024
Orbit: 793 x 976 km, 99.8° (Epoch: 03 October)

Event Time Altitude Azimuth Distance (km) Brightness Sun altitude
Rises 05:44:06 0° 15° (NNE) 3,411 9.8 -10.1°
Reaches altitude 10° 05:47:01 10° 359° (N) 2,502 8.9 -9.7°
Maximum altitude 05:50:55 20° 314° (NW) 1,921 7.8 -9.2°
Drops below altitude 10° 05:54:55 10° 269° (W) 2,581 8.1 -8.6°
Enters shadow 05:55:03 10° 268° (W) 2,618 8.1 -8.6°
